When you browse on this site, cookies collect data to enhance your experience and personalize the content and advertising you see.
Visit our Privacy Policy to learn more. By continuing to use the site, you agree to this use of cookies and data.
  • En España
  • Lista de países
  • Para 7 días
  • Temperatura del agua
  • Mapa Satelital
  • El tiempo en el mapa
  • Informadores
  • user-avatar
    Iniciar sesión

    Tiempo cada hora Brisbane

    Hoy, 19 Abril, Viernes

    Tiempo Temperatura Precipitaciones Viento Presión Humedad
    00:00 +20°C° 0.1 mm 3 mps 765 mmHg 90%
    01:00 +20°C° 0.1 mm 3 mps 765 mmHg 91%
    02:00 +20°C° 0.1 mm 3 mps 765 mmHg 91%
    03:00 +20°C° 0.1 mm 3 mps 764 mmHg 91%
    04:00 +20°C° 0 mm 3 mps 764 mmHg 90%
    05:00 +20°C° 0.1 mm 3 mps 764 mmHg 89%
    06:00 +21°C° 0.1 mm 3 mps 765 mmHg 88%
    07:00 +21°C° 0.1 mm 4 mps 765 mmHg 87%
    08:00 +22°C° 0.2 mm 4 mps 765 mmHg 82%
    09:00 +25°C° 0.2 mm 4 mps 765 mmHg 77%
    10:00 +26°C° 0 mm 5 mps 765 mmHg 74%
    11:00 +26°C° 0.6 mm 5 mps 765 mmHg 72%
    12:00 +27°C° 0.6 mm 5 mps 764 mmHg 71%
    13:00 +27°C° 0.6 mm 5 mps 764 mmHg 69%
    14:00 +27°C° 0.8 mm 5 mps 764 mmHg 73%
    15:00 +26°C° 0.8 mm 5 mps 763 mmHg 76%
    16:00 +25°C° 0.8 mm 5 mps 763 mmHg 80%
    17:00 +23°C° 0.8 mm 5 mps 764 mmHg 83%
    18:00 +23°C° 0.8 mm 4 mps 764 mmHg 86%
    19:00 +22°C° 0.8 mm 4 mps 764 mmHg 90%
    20:00 +22°C° 1.9 mm 4 mps 765 mmHg 90%
    21:00 +22°C° 1.9 mm 4 mps 765 mmHg 91%
    22:00 +21°C° 1.9 mm 4 mps 765 mmHg 91%
    23:00 +21°C° 3.8 mm 4 mps 765 mmHg 91%

    Mañana, 20 Abril, Sábado

    Tiempo Temperatura Precipitaciones Viento Presión Humedad
    00:00 +21°C° 3.8 mm 4 mps 764 mmHg 92%
    01:00 +21°C° 3.8 mm 4 mps 764 mmHg 92%
    02:00 +21°C° 3.2 mm 4 mps 764 mmHg 92%
    03:00 +21°C° 3.2 mm 4 mps 764 mmHg 92%
    04:00 +21°C° 3.2 mm 3 mps 764 mmHg 92%
    05:00 +21°C° 2.4 mm 4 mps 764 mmHg 92%
    06:00 +21°C° 2.4 mm 4 mps 764 mmHg 92%
    07:00 +21°C° 2.4 mm 4 mps 765 mmHg 91%
    08:00 +22°C° 1.9 mm 4 mps 765 mmHg 88%
    09:00 +23°C° 1.9 mm 4 mps 765 mmHg 86%
    10:00 +25°C° 1.9 mm 5 mps 765 mmHg 83%
    11:00 +25°C° 1.9 mm 4 mps 765 mmHg 82%
    12:00 +25°C° 1.9 mm 4 mps 764 mmHg 82%
    13:00 +25°C° 1.9 mm 4 mps 764 mmHg 81%
    14:00 +25°C° 1.2 mm 4 mps 764 mmHg 82%
    15:00 +25°C° 1.2 mm 4 mps 763 mmHg 83%
    16:00 +23°C° 1.2 mm 4 mps 763 mmHg 84%
    17:00 +23°C° 0.6 mm 4 mps 764 mmHg 86%
    18:00 +22°C° 0.6 mm 4 mps 764 mmHg 88%
    19:00 +22°C° 0.6 mm 4 mps 764 mmHg 90%
    20:00 +22°C° 0.5 mm 4 mps 765 mmHg 90%
    21:00 +21°C° 0.5 mm 4 mps 765 mmHg 91%
    22:00 +21°C° 0.5 mm 4 mps 765 mmHg 91%
    23:00 +21°C° 0.5 mm 4 mps 765 mmHg 91%

    Pasado mañana, 21 Abril, Domingo

    Tiempo Temperatura Precipitaciones Viento Presión Humedad
    00:00 +21°C° 0.5 mm 4 mps 764 mmHg 91%
    01:00 +21°C° 0.5 mm 3 mps 764 mmHg 91%
    02:00 +21°C° 0.4 mm 3 mps 764 mmHg 91%
    03:00 +21°C° 0.4 mm 3 mps 764 mmHg 91%
    04:00 +21°C° 0.4 mm 3 mps 763 mmHg 92%
    05:00 +21°C° 0.2 mm 3 mps 764 mmHg 91%
    06:00 +21°C° 0.2 mm 4 mps 764 mmHg 90%
    07:00 +21°C° 0.2 mm 4 mps 764 mmHg 90%
    08:00 +23°C° 0.1 mm 4 mps 765 mmHg 83%
    09:00 +25°C° 0.1 mm 4 mps 765 mmHg 76%
    10:00 +26°C° 0.1 mm 4 mps 765 mmHg 70%
    11:00 +27°C° 0.1 mm 5 mps 764 mmHg 66%
    12:00 +28°C° 0.1 mm 5 mps 764 mmHg 63%
    13:00 +28°C° 0.1 mm 5 mps 763 mmHg 59%
    14:00 +28°C° 0.1 mm 5 mps 763 mmHg 62%
    15:00 +27°C° 0.1 mm 5 mps 763 mmHg 66%
    16:00 +26°C° 0.1 mm 5 mps 762 mmHg 69%
    17:00 +25°C° 0.2 mm 4 mps 763 mmHg 75%
    18:00 +23°C° 0.2 mm 4 mps 763 mmHg 80%
    19:00 +22°C° 0.2 mm 4 mps 764 mmHg 85%
    20:00 +22°C° 0.1 mm 3 mps 764 mmHg 86%
    21:00 +21°C° 0.1 mm 3 mps 765 mmHg 87%
    22:00 +21°C° 0.1 mm 3 mps 765 mmHg 88%
    23:00 +21°C° 0.2 mm 3 mps 764 mmHg 89%

    22 Abril, Lunes

    Tiempo Temperatura Precipitaciones Viento Presión Humedad
    00:00 +21°C° 0.2 mm 2 mps 764 mmHg 90%
    01:00 +21°C° 0.2 mm 2 mps 764 mmHg 90%
    02:00 +21°C° 0.1 mm 3 mps 763 mmHg 91%
    03:00 +21°C° 0.1 mm 3 mps 763 mmHg 91%
    04:00 +21°C° 0.1 mm 3 mps 763 mmHg 91%
    05:00 +21°C° 0.2 mm 3 mps 763 mmHg 91%
    06:00 +21°C° 0.2 mm 3 mps 764 mmHg 91%
    07:00 +21°C° 0.2 mm 3 mps 764 mmHg 91%
    08:00 +22°C° 0.3 mm 4 mps 764 mmHg 86%
    09:00 +25°C° 0.3 mm 4 mps 765 mmHg 80%
    10:00 +26°C° 0.3 mm 5 mps 765 mmHg 75%
    11:00 +26°C° 0.6 mm 5 mps 764 mmHg 73%
    12:00 +27°C° 0.6 mm 5 mps 764 mmHg 71%
    13:00 +27°C° 0.6 mm 5 mps 763 mmHg 69%
    14:00 +27°C° 0.4 mm 5 mps 763 mmHg 70%
    15:00 +26°C° 0.4 mm 5 mps 763 mmHg 72%
    16:00 +25°C° 0.4 mm 5 mps 763 mmHg 73%
    17:00 +25°C° 0.1 mm 4 mps 764 mmHg 76%
    18:00 +23°C° 0.1 mm 4 mps 764 mmHg 79%
    19:00 +22°C° 0.1 mm 4 mps 765 mmHg 82%
    20:00 +22°C° 0.2 mm 4 mps 765 mmHg 83%
    21:00 +22°C° 0.2 mm 4 mps 765 mmHg 85%
    22:00 +21°C° 0.2 mm 3 mps 766 mmHg 86%
    23:00 +21°C° 0.5 mm 3 mps 765 mmHg 87%

    23 Abril, Martes

    Tiempo Temperatura Precipitaciones Viento Presión Humedad
    00:00 +21°C° 0.5 mm 3 mps 765 mmHg 88%
    01:00 +21°C° 0.5 mm 3 mps 765 mmHg 89%
    02:00 +21°C° 0.3 mm 3 mps 765 mmHg 89%
    03:00 +21°C° 0.3 mm 3 mps 765 mmHg 90%
    04:00 +20°C° 0.3 mm 3 mps 765 mmHg 90%
    05:00 +20°C° 0.2 mm 3 mps 765 mmHg 89%
    06:00 +21°C° 0.2 mm 3 mps 765 mmHg 88%
    07:00 +21°C° 0.2 mm 3 mps 766 mmHg 88%
    08:00 +22°C° 0.1 mm 4 mps 766 mmHg 80%
    09:00 +25°C° 0.1 mm 4 mps 766 mmHg 73%
    10:00 +26°C° 0.1 mm 4 mps 766 mmHg 65%
    11:00 +27°C° 0 mm 4 mps 766 mmHg 62%
    12:00 +28°C° 0 mm 4 mps 765 mmHg 58%
    13:00 +28°C° 0 mm 4 mps 764 mmHg 55%
    14:00 +28°C° 0.1 mm 4 mps 764 mmHg 59%
    15:00 +27°C° 0.1 mm 4 mps 764 mmHg 64%
    16:00 +26°C° 0.1 mm 4 mps 764 mmHg 68%
    17:00 +25°C° 0.1 mm 4 mps 765 mmHg 74%
    18:00 +23°C° 0.1 mm 4 mps 765 mmHg 80%
    19:00 +22°C° 0.1 mm 4 mps 766 mmHg 86%
    20:00 +22°C° 0.7 mm 3 mps 766 mmHg 87%
    21:00 +21°C° 0.7 mm 3 mps 766 mmHg 88%
    22:00 +21°C° 0.7 mm 3 mps 766 mmHg 89%
    23:00 +21°C° 0.5 mm 3 mps 766 mmHg 89%

    24 Abril, Miércoles

    Tiempo Temperatura Precipitaciones Viento Presión Humedad
    00:00 +21°C° 0.5 mm 3 mps 765 mmHg 89%
    01:00 +21°C° 0.5 mm 3 mps 765 mmHg 89%
    02:00 +21°C° 0.1 mm 3 mps 765 mmHg 89%
    03:00 +21°C° 0.1 mm 3 mps 765 mmHg 89%
    04:00 +21°C° 0.1 mm 2 mps 765 mmHg 90%
    05:00 +21°C° 0 mm 2 mps 765 mmHg 89%
    06:00 +21°C° 0 mm 2 mps 765 mmHg 89%
    07:00 +21°C° 0 mm 2 mps 766 mmHg 89%
    08:00 +23°C° 0 mm 2 mps 766 mmHg 84%
    09:00 +24°C° 0 mm 2 mps 766 mmHg 79%
    10:00 +25°C° 0 mm 2 mps 766 mmHg 74%
    11:00 +26°C° 0 mm 2 mps 765 mmHg 70%
    12:00 +26°C° 0 mm 2 mps 764 mmHg 67%
    13:00 +27°C° 0 mm 2 mps 764 mmHg 63%
    14:00 +26°C° 0 mm 2 mps 764 mmHg 63%
    15:00 +26°C° 0 mm 3 mps 763 mmHg 63%
    16:00 +26°C° 0 mm 3 mps 763 mmHg 64%
    17:00 +25°C° 0 mm 2 mps 764 mmHg 70%
    18:00 +24°C° 0 mm 2 mps 764 mmHg 76%
    19:00 +21°C° 0 mm 2 mps 765 mmHg 82%
    20:00 +21°C° 0 mm 2 mps 765 mmHg 84%
    21:00 +22°C° 0 mm 1 mps 765 mmHg 86%
    22:00 +21°C° 0 mm 1 mps 765 mmHg 88%
    23:00 +21°C° 0 mm 1 mps 764 mmHg 89%
    Mostrar más